Regional Weather Roundup
Issued by NWS Memphis, TN

Home | Current Version | Previous Version | Text Only | Print | Product List | Glossary On
Versions: 1 2 3 4 5 6 7 8 9 10 11 12 13 14 15 16 17 18 19 20 21 22 23 24 25 26 27 28 29 30 31 32 33 34 35 36 37 38 39 40 41 42 43 44 45 46 47 48 49 50
000
ASUS44 KMEG 051410
RWRMEG
MEMPHIS CWA HOURLY WEATHER ROUNDUP
NATIONAL WEATHER SERVICE MEMPHIS TN
900 AM CDT SAT SEP 05 2015

...WEST TENNESSEE...

CITY           SKY/WX    TMP DP  RH WIND       PRES   REMARKS
MEMPHIS INTL   SUNNY     84  70  62 E3        30.08R
NWS MEMPHIS      N/A     82 N/A N/A MISG        N/A
JACKSON        SUNNY     79  73  82 CALM      30.09R
LEXINGTON      SUNNY     79  72  78 CALM      30.09R
DYERSBURG      SUNNY     79  72  78 CALM      30.09S
UNION CITY     SUNNY     79  75  89 SE5       30.08S
PARIS          SUNNY     79  68  69 SE5       30.10S


...EASTERN ARKANSAS...

CITY           SKY/WX    TMP DP  RH WIND       PRES   REMARKS
JONESBORO      SUNNY     79  73  82 CALM      30.07S
WEST MEMPHIS   SUNNY     82  74  76 E3        30.07R
BATESVILLE     SUNNY     77  72  83 CALM      30.09R
NEWPORT        SUNNY     80  74  82 CALM      30.09R
WALNUT RIDGE   SUNNY     79  72  78 CALM      30.08S
BLYTHEVILLE    SUNNY     81  75  82 E3        30.08S
SEARCY         SUNNY     82  73  74 CALM      30.08S
STUTTGART      SUNNY     81  72  74 E8        30.06S
PINE BLUFF     SUNNY     80  72  76 E3        30.05S
MONTICELLO     SUNNY     82  74  76 VRB3      30.04S


...NORTH MISSISSIPPI...

CITY           SKY/WX    TMP DP  RH WIND       PRES   REMARKS
TUPELO         SUNNY     79  71  76 NE3       30.07S
OXFORD         SUNNY     81  70  69 E3        30.09S
OLIVE BRANCH   SUNNY     79  73  83 CALM      30.08S
TUNICA           N/A    N/A N/A N/A MISG        N/A
CLARKSDALE     SUNNY     81  75  83 CALM      30.07S
CORINTH        SUNNY     77  72  83 CALM      30.08R
GREENWOOD      SUNNY     82  71  69 NE3       30.05S
COLUMBUS       SUNNY     80  71  75 E1        30.05S
STARKVILLE     FAIR      81  72  74 CALM      30.06S
GOLDEN TRIANGL SUNNY     81  72  74 NE5       30.05S


...SOUTHEAST MISSOURI...

CITY           SKY/WX    TMP DP  RH WIND       PRES   REMARKS
WEST PLAINS    SUNNY     79  69  71 SE5       30.13S
POPLAR BLUFF   SUNNY     79  72  79 NE3       30.08S
CAPE GIRARDEAU SUNNY     78  72  81 CALM      30.09S HAZE


...NORTHWEST ALABAMA...

CITY           SKY/WX    TMP DP  RH WIND       PRES   REMARKS
MUSCLE SHOALS  SUNNY     78  72  81 E3        30.10S


...MIDDLE TENNESSEE...

CITY           SKY/WX    TMP DP  RH WIND       PRES   REMARKS
NASHVILLE      SUNNY     80  69  69 E3        30.11S
CLARKSVILLE    SUNNY     77  69  76 SE3       30.11R HAZE
COLUMBIA       SUNNY     75  75 100 CALM      30.10R


...WESTERN KENTUCKY...

CITY           SKY/WX    TMP DP  RH WIND       PRES   REMARKS
PADUCAH        SUNNY     80  71  74 SE5       30.10R HAZE
FORT CAMPBELL  SUNNY     78  69  74 E3        30.11R


...CENTRAL ARKANSAS...

CITY           SKY/WX    TMP DP  RH WIND       PRES   REMARKS
LITTLE ROCK    SUNNY     82  72  71 NE6       30.06R


SKY/WX REPORTED AS FAIR MEANS FEW OR NO CLOUDS BELOW
12 THOUSAND FEET.



USA.gov is the U.S. government's official web portal to all federal, state and local government web resources and services.